Time,TemperatureF,DewpointF,PressureIn,WindDirection,WindDirectionDegrees,WindSpeedMPH,WindSpeedGustMPH,Humidity,HourlyPrecipIn,Conditions,Clouds,dailyrainin,SoftwareType,DateUTC
2013-07-05 00:00:00,69.3,62.9,30.04,NNE,26,0.0,0.0,80,0.00,,,0.00,Wunderground v.1.15,2013-07-05 04:00:00,
2013-07-05 00:05:00,69.2,62.8,30.04,NNE,26,0.0,0.0,80,0.00,,,0.00,Wunderground v.1.15,2013-07-05 04:05:00,
2013-07-05 00:10:00,69.0,62.6,30.04,NNE,26,0.0,0.0,80,0.00,,,0.00,Wunderground v.1.15,2013-07-05 04:10:00,
2013-07-05 00:15:00,68.8,62.4,30.04,NNE,26,0.0,0.0,80,0.00,,,0.00,Wunderground v.1.15,2013-07-05 04:15:00,
2013-07-05 00:20:00,68.6,62.5,30.04,NNE,26,0.0,0.0,81,0.00,,,0.00,Wunderground v.1.15,2013-07-05 04:20:00,
2013-07-05 00:25:00,68.3,62.2,30.04,NNE,26,0.0,0.0,81,0.00,,,0.00,Wunderground v.1.15,2013-07-05 04:25:00,
2013-07-05 00:35:00,67.5,61.8,30.04,NNE,26,0.0,0.0,82,0.00,,,0.00,Wunderground v.1.15,2013-07-05 04:35:00,
2013-07-05 00:41:00,67.1,61.8,30.04,NNE,26,0.0,0.0,83,0.00,,,0.00,Wunderground v.1.15,2013-07-05 04:41:00,
2013-07-05 00:45:00,67.1,62.1,30.04,NNE,26,0.0,0.0,84,0.00,,,0.00,Wunderground v.1.15,2013-07-05 04:45:00,
2013-07-05 00:55:00,67.1,62.1,30.04,NNE,26,0.0,0.0,84,0.00,,,0.00,Wunderground v.1.15,2013-07-05 04:55:00,
2013-07-05 01:00:00,66.8,62.1,30.04,ESE,115,0.0,1.0,85,0.00,,,0.00,Wunderground v.1.15,2013-07-05 05:00:00,
2013-07-05 01:10:00,66.2,61.9,30.04,ESE,117,2.0,2.0,86,0.00,,,0.00,Wunderground v.1.15,2013-07-05 05:10:00,
2013-07-05 01:15:00,66.2,62.2,30.04,ESE,117,1.0,2.0,87,0.00,,,0.00,Wunderground v.1.15,2013-07-05 05:15:00,
2013-07-05 01:26:00,66.4,62.4,30.03,ESE,117,0.0,1.0,87,0.00,,,0.00,Wunderground v.1.15,2013-07-05 05:26:00,
2013-07-05 01:35:00,66.7,62.7,30.03,ESE,117,0.0,0.0,87,0.00,,,0.00,Wunderground v.1.15,2013-07-05 05:35:00,
2013-07-05 01:41:00,66.8,62.8,30.04,ESE,117,0.0,0.0,87,0.00,,,0.00,Wunderground v.1.15,2013-07-05 05:41:00,
2013-07-05 01:46:00,66.8,62.8,30.03,ESE,117,0.0,3.0,87,0.00,,,0.00,Wunderground v.1.15,2013-07-05 05:46:00,
2013-07-05 01:55:00,66.1,62.4,30.03,ESE,116,2.0,2.0,88,0.00,,,0.00,Wunderground v.1.15,2013-07-05 05:55:00,
2013-07-05 02:06:00,65.9,62.6,30.04,ESE,116,0.0,1.0,89,0.00,,,0.00,Wunderground v.1.15,2013-07-05 06:06:00,
2013-07-05 02:15:00,66.0,62.7,30.04,ESE,116,0.0,2.0,89,0.00,,,0.00,Wunderground v.1.15,2013-07-05 06:15:00,
2013-07-05 02:21:00,65.9,62.2,30.04,ESE,116,1.0,1.0,88,0.00,,,0.00,Wunderground v.1.15,2013-07-05 06:21:00,
2013-07-05 02:30:00,65.5,62.2,30.03,ESE,116,1.0,1.0,89,0.00,,,0.00,Wunderground v.1.15,2013-07-05 06:30:00,
2013-07-05 02:40:00,65.4,62.4,30.03,ESE,116,1.0,1.0,90,0.00,,,0.00,Wunderground v.1.15,2013-07-05 06:40:00,
2013-07-05 02:50:00,65.5,62.5,30.03,ESE,116,0.0,0.0,90,0.00,,,0.00,Wunderground v.1.15,2013-07-05 06:50:00,
2013-07-05 03:00:00,65.7,62.4,30.03,ESE,116,0.0,0.0,89,0.00,,,0.00,Wunderground v.1.15,2013-07-05 07:00:00,
2013-07-05 03:06:00,65.7,62.4,30.03,ESE,116,0.0,0.0,89,0.00,,,0.00,Wunderground v.1.15,2013-07-05 07:06:00,
2013-07-05 03:15:00,65.7,62.7,30.03,ESE,116,0.0,0.0,90,0.00,,,0.00,Wunderground v.1.15,2013-07-05 07:15:00,
2013-07-05 03:20:00,65.7,62.7,30.03,ESE,116,0.0,0.0,90,0.00,,,0.00,Wunderground v.1.15,2013-07-05 07:20:00,
2013-07-05 03:26:00,65.7,62.7,30.02,ESE,116,0.0,0.0,90,0.00,,,0.00,Wunderground v.1.15,2013-07-05 07:26:00,
2013-07-05 03:35:00,65.8,62.5,30.02,ESE,116,0.0,0.0,89,0.00,,,0.00,Wunderground v.1.15,2013-07-05 07:35:00,
2013-07-05 03:40:00,65.7,62.4,30.02,ESE,116,0.0,0.0,89,0.00,,,0.00,Wunderground v.1.15,2013-07-05 07:40:00,
2013-07-05 03:50:00,65.7,62.4,30.02,ESE,116,0.0,0.0,89,0.00,,,0.00,Wunderground v.1.15,2013-07-05 07:50:00,
2013-07-05 04:00:00,65.7,62.4,30.03,ESE,116,0.0,0.0,89,0.00,,,0.00,Wunderground v.1.15,2013-07-05 08:00:00,
2013-07-05 04:10:00,65.8,62.5,30.03,ESE,116,0.0,0.0,89,0.00,,,0.00,Wunderground v.1.15,2013-07-05 08:10:00,
2013-07-05 04:20:00,65.8,62.5,30.03,ESE,116,0.0,0.0,89,0.00,,,0.00,Wunderground v.1.15,2013-07-05 08:20:00,
2013-07-05 04:30:00,65.7,62.4,30.03,ESE,116,0.0,0.0,89,0.00,,,0.00,Wunderground v.1.15,2013-07-05 08:30:00,
2013-07-05 04:36:00,65.6,62.3,30.02,ESE,116,0.0,0.0,89,0.00,,,0.00,Wunderground v.1.15,2013-07-05 08:36:00,
2013-07-05 04:45:00,65.5,62.5,30.03,ESE,116,0.0,0.0,90,0.00,,,0.00,Wunderground v.1.15,2013-07-05 08:45:00,
2013-07-05 05:05:00,65.6,62.6,30.03,ESE,116,0.0,0.0,90,0.00,,,0.00,Wunderground v.1.15,2013-07-05 09:05:00,
2013-07-05 05:15:00,65.6,62.6,30.03,ESE,116,0.0,1.0,90,0.00,,,0.00,Wunderground v.1.15,2013-07-05 09:15:00,
2013-07-05 05:25:00,65.7,62.7,30.02,ESE,116,0.0,0.0,90,0.00,,,0.00,Wunderground v.1.15,2013-07-05 09:25:00,
2013-07-05 05:30:00,65.8,62.5,30.03,ESE,116,0.0,0.0,89,0.00,,,0.00,Wunderground v.1.15,2013-07-05 09:30:00,
2013-07-05 05:36:00,65.8,62.5,30.03,ESE,116,0.0,0.0,89,0.00,,,0.00,Wunderground v.1.15,2013-07-05 09:36:00,
2013-07-05 05:50:00,65.9,62.6,30.03,ESE,116,0.0,0.0,89,0.00,,,0.00,Wunderground v.1.15,2013-07-05 09:50:00,
2013-07-05 05:55:00,65.9,62.6,30.03,ESE,116,0.0,0.0,89,0.00,,,0.00,Wunderground v.1.15,2013-07-05 09:55:00,
2013-07-05 06:05:00,65.8,62.5,30.03,ESE,116,0.0,0.0,89,0.00,,,0.00,Wunderground v.1.15,2013-07-05 10:05:00,
2013-07-05 06:10:00,65.8,62.5,30.03,ESE,116,0.0,0.0,89,0.00,,,0.00,Wunderground v.1.15,2013-07-05 10:10:00,
2013-07-05 06:20:00,65.7,62.7,30.04,ESE,116,0.0,0.0,90,0.00,,,0.00,Wunderground v.1.15,2013-07-05 10:20:00,
2013-07-05 06:25:00,65.6,62.6,30.04,ESE,116,0.0,0.0,90,0.00,,,0.00,Wunderground v.1.15,2013-07-05 10:25:00,
2013-07-05 06:35:00,65.6,62.6,30.04,ESE,116,0.0,0.0,90,0.00,,,0.00,Wunderground v.1.15,2013-07-05 10:35:00,
2013-07-05 06:45:00,66.0,63.0,30.05,WSW,250,1.0,1.0,90,0.00,,,0.00,Wunderground v.1.15,2013-07-05 10:45:00,
2013-07-05 06:51:00,66.4,63.1,30.05,WSW,249,1.0,1.0,89,0.00,,,0.00,Wunderground v.1.15,2013-07-05 10:51:00,
2013-07-05 07:05:00,66.7,62.7,30.04,WSW,249,0.0,0.0,87,0.00,,,0.00,Wunderground v.1.15,2013-07-05 11:05:00,
2013-07-05 07:15:00,66.4,62.4,30.04,WSW,249,0.0,0.0,87,0.00,,,0.00,Wunderground v.1.15,2013-07-05 11:15:00,
2013-07-05 07:20:00,66.3,62.6,30.04,WSW,249,0.0,0.0,88,0.00,,,0.00,Wunderground v.1.15,2013-07-05 11:20:00,
2013-07-05 07:30:00,66.2,62.2,30.04,WSW,249,0.0,0.0,87,0.00,,,0.00,Wunderground v.1.15,2013-07-05 11:30:00,
2013-07-05 07:35:00,66.1,62.4,30.04,NE,51,0.0,0.0,88,0.00,,,0.00,Wunderground v.1.15,2013-07-05 11:35:00,
2013-07-05 07:50:00,66.7,63.4,30.04,NE,51,0.0,0.0,89,0.00,,,0.00,Wunderground v.1.15,2013-07-05 11:50:00,
2013-07-05 08:00:00,67.9,64.2,30.04,East,99,1.0,1.0,88,0.00,,,0.00,Wunderground v.1.15,2013-07-05 12:00:00,
2013-07-05 08:05:00,68.2,64.2,30.04,East,99,1.0,1.0,87,0.00,,,0.00,Wunderground v.1.15,2013-07-05 12:05:00,
2013-07-05 08:15:00,69.0,64.6,30.04,East,99,0.0,0.0,86,0.00,,,0.00,Wunderground v.1.15,2013-07-05 12:15:00,
2013-07-05 08:21:00,69.5,65.1,30.04,East,99,0.0,0.0,86,0.00,,,0.00,Wunderground v.1.15,2013-07-05 12:21:00,
2013-07-05 08:30:00,70.0,64.9,30.04,East,99,0.0,0.0,84,0.00,,,0.00,Wunderground v.1.15,2013-07-05 12:30:00,
2013-07-05 08:35:00,70.3,65.2,30.05,East,99,0.0,0.0,84,0.00,,,0.00,Wunderground v.1.15,2013-07-05 12:35:00,
2013-07-05 08:40:00,70.5,65.1,30.05,East,101,0.0,0.0,83,0.00,,,0.00,Wunderground v.1.15,2013-07-05 12:40:00,
2013-07-05 08:50:00,70.9,65.1,30.05,East,101,1.0,1.0,82,0.00,,,0.00,Wunderground v.1.15,2013-07-05 12:50:00,
2013-07-05 09:00:00,71.3,65.5,30.05,East,101,0.0,2.0,82,0.00,,,0.00,Wunderground v.1.15,2013-07-05 13:00:00,
2013-07-05 09:05:00,71.5,65.4,30.05,East,101,1.0,2.0,81,0.00,,,0.00,Wunderground v.1.15,2013-07-05 13:05:00,
2013-07-05 09:15:00,71.9,65.4,30.05,East,101,1.0,1.0,80,0.00,,,0.00,Wunderground v.1.15,2013-07-05 13:15:00,
2013-07-05 09:21:00,72.3,66.1,30.05,West,261,1.0,3.0,81,0.00,,,0.00,Wunderground v.1.15,2013-07-05 13:21:00,
2013-07-05 09:30:00,72.7,65.1,30.05,West,267,1.0,1.0,77,0.00,,,0.00,Wunderground v.1.15,2013-07-05 13:30:00,
2013-07-05 09:35:00,72.8,65.5,30.05,WNW,302,2.0,2.0,78,0.00,,,0.00,Wunderground v.1.15,2013-07-05 13:35:00,
2013-07-05 09:46:00,73.2,64.8,30.05,West,266,2.0,4.0,75,0.00,,,0.00,Wunderground v.1.15,2013-07-05 13:46:00,
2013-07-05 09:55:00,73.4,65.0,30.05,West,279,2.0,4.0,75,0.00,,,0.00,Wunderground v.1.15,2013-07-05 13:55:00,
2013-07-05 10:00:00,73.6,65.6,30.05,WNW,284,2.0,3.0,76,0.00,,,0.00,Wunderground v.1.15,2013-07-05 14:00:00,
2013-07-05 10:15:00,74.2,64.6,30.06,WSW,258,3.0,3.0,72,0.00,,,0.00,Wunderground v.1.15,2013-07-05 14:15:00,
2013-07-05 10:25:00,74.5,64.9,30.06,WNW,299,3.0,3.0,72,0.00,,,0.00,Wunderground v.1.15,2013-07-05 14:25:00,
2013-07-05 10:35:00,74.7,65.1,30.06,West,275,3.0,3.0,72,0.00,,,0.00,Wunderground v.1.15,2013-07-05 14:35:00,
2013-07-05 10:40:00,74.7,64.3,30.06,WSW,256,3.0,3.0,70,0.00,,,0.00,Wunderground v.1.15,2013-07-05 14:40:00,
2013-07-05 10:45:00,75.2,65.1,30.06,WNW,300,2.0,3.0,71,0.00,,,0.00,Wunderground v.1.15,2013-07-05 14:45:00,
2013-07-05 10:50:00,75.8,64.5,30.05,WNW,296,3.0,3.0,68,0.00,,,0.00,Wunderground v.1.15,2013-07-05 14:50:00,
2013-07-05 11:00:00,76.9,65.1,30.05,West,259,1.0,1.0,67,0.00,,,0.00,Wunderground v.1.15,2013-07-05 15:00:00,
2013-07-05 11:10:00,77.7,65.9,30.06,West,267,2.0,2.0,67,0.00,,,0.00,Wunderground v.1.15,2013-07-05 15:10:00,
2013-07-05 11:15:00,78.2,65.0,30.06,West,269,1.0,4.0,64,0.00,,,0.00,Wunderground v.1.15,2013-07-05 15:15:00,
2013-07-05 11:25:00,77.8,64.6,30.05,WNW,290,4.0,5.0,64,0.00,,,0.00,Wunderground v.1.15,2013-07-05 15:25:00,
2013-07-05 11:30:00,78.1,64.9,30.06,West,277,3.0,3.0,64,0.00,,,0.00,Wunderground v.1.15,2013-07-05 15:30:00,
2013-07-05 11:40:00,78.6,65.4,30.06,West,276,1.0,1.0,64,0.00,,,0.00,Wunderground v.1.15,2013-07-05 15:40:00,
2013-07-05 11:45:00,79.1,66.3,30.05,South,190,1.0,1.0,65,0.00,,,0.00,Wunderground v.1.15,2013-07-05 15:45:00,
2013-07-05 11:55:00,79.5,64.9,30.06,NW,309,2.0,2.0,61,0.00,,,0.00,Wunderground v.1.15,2013-07-05 15:55:00,
2013-07-05 12:01:00,79.6,65.9,30.05,ESE,122,1.0,1.0,63,0.00,,,0.00,Wunderground v.1.15,2013-07-05 16:01:00,
2013-07-05 12:10:00,79.9,65.7,30.05,SE,136,2.0,3.0,62,0.00,,,0.00,Wunderground v.1.15,2013-07-05 16:10:00,
2013-07-05 12:15:00,80.1,65.9,30.05,WNW,292,2.0,3.0,62,0.00,,,0.00,Wunderground v.1.15,2013-07-05 16:15:00,
2013-07-05 12:20:00,80.0,65.8,30.05,West,259,2.0,2.0,62,0.00,,,0.00,Wunderground v.1.15,2013-07-05 16:20:00,
2013-07-05 12:30:00,79.9,65.7,30.05,SE,130,3.0,3.0,62,0.00,,,0.00,Wunderground v.1.15,2013-07-05 16:30:00,
2013-07-05 12:35:00,79.9,66.6,30.05,SE,134,3.0,3.0,64,0.00,,,0.00,Wunderground v.1.15,2013-07-05 16:35:00,
2013-07-05 12:45:00,79.8,65.6,30.05,ESE,115,3.0,4.0,62,0.00,,,0.00,Wunderground v.1.15,2013-07-05 16:45:00,
2013-07-05 12:50:00,79.5,65.3,30.05,West,262,4.0,4.0,62,0.00,,,0.00,Wunderground v.1.15,2013-07-05 16:50:00,
2013-07-05 12:55:00,79.5,65.8,30.05,West,259,2.0,4.0,63,0.00,,,0.00,Wunderground v.1.15,2013-07-05 16:55:00,
2013-07-05 13:05:00,80.5,65.8,30.04,SSW,198,1.0,1.0,61,0.00,,,0.00,Wunderground v.1.15,2013-07-05 17:05:00,
2013-07-05 13:10:00,80.7,66.5,30.04,ESE,118,1.0,7.0,62,0.00,,,0.00,Wunderground v.1.15,2013-07-05 17:10:00,
2013-07-05 13:15:00,80.9,66.7,30.04,West,275,2.0,7.0,62,0.00,,,0.00,Wunderground v.1.15,2013-07-05 17:15:00,
2013-07-05 13:25:00,81.1,66.8,30.03,ENE,74,1.0,2.0,62,0.00,,,0.00,Wunderground v.1.15,2013-07-05 17:25:00,
2013-07-05 13:30:00,81.4,66.7,30.04,SSE,161,1.0,2.0,61,0.00,,,0.00,Wunderground v.1.15,2013-07-05 17:30:00,
2013-07-05 13:40:00,81.4,66.7,30.04,West,269,3.0,6.0,61,0.00,,,0.00,Wunderground v.1.15,2013-07-05 17:40:00,
2013-07-05 13:50:00,81.5,66.8,30.03,ESE,120,3.0,3.0,61,0.00,,,0.00,Wunderground v.1.15,2013-07-05 17:50:00,
2013-07-05 13:55:00,81.8,65.6,30.04,East,98,2.0,3.0,58,0.00,,,0.00,Wunderground v.1.15,2013-07-05 17:55:00,
2013-07-05 14:00:00,81.8,66.6,30.03,SSW,201,3.0,3.0,60,0.00,,,0.00,Wunderground v.1.15,2013-07-05 18:00:00,
2013-07-05 14:11:00,81.5,66.3,30.03,WNW,290,3.0,3.0,60,0.00,,,0.00,Wunderground v.1.15,2013-07-05 18:11:00,
2013-07-05 14:16:00,81.3,66.1,30.03,West,269,3.0,4.0,60,0.00,,,0.00,Wunderground v.1.15,2013-07-05 18:16:00,
2013-07-05 14:25:00,80.7,66.0,30.03,West,275,2.0,3.0,61,0.00,,,0.00,Wunderground v.1.15,2013-07-05 18:25:00,
2013-07-05 14:30:00,80.7,66.5,30.03,West,275,1.0,2.0,62,0.00,,,0.00,Wunderground v.1.15,2013-07-05 18:30:00,
2013-07-05 14:35:00,81.4,67.1,30.03,West,277,0.0,2.0,62,0.00,,,0.00,Wunderground v.1.15,2013-07-05 18:35:00,
2013-07-05 14:46:00,81.7,66.5,30.03,NW,311,2.0,3.0,60,0.00,,,0.00,Wunderground v.1.15,2013-07-05 18:46:00,
2013-07-05 14:56:00,82.4,67.1,30.03,SSE,168,1.0,2.0,60,0.00,,,0.00,Wunderground v.1.15,2013-07-05 18:56:00,
2013-07-05 15:00:00,82.9,66.1,30.03,WNW,290,2.0,4.0,57,0.00,,,0.00,Wunderground v.1.15,2013-07-05 19:00:00,
2013-07-05 15:05:00,82.9,66.6,30.03,West,259,2.0,4.0,58,0.00,,,0.00,Wunderground v.1.15,2013-07-05 19:05:00,
2013-07-05 15:10:00,82.7,66.4,30.03,ESE,123,1.0,3.0,58,0.00,,,0.00,Wunderground v.1.15,2013-07-05 19:10:00,
2013-07-05 15:20:00,83.1,66.8,30.03,WNW,286,2.0,3.0,58,0.00,,,0.00,Wunderground v.1.15,2013-07-05 19:20:00,
2013-07-05 15:25:00,83.0,65.7,30.03,West,281,2.0,3.0,56,0.00,,,0.00,Wunderground v.1.15,2013-07-05 19:25:00,
2013-07-05 15:30:00,83.0,66.2,30.02,West,281,2.0,2.0,57,0.00,,,0.00,Wunderground v.1.15,2013-07-05 19:30:00,
2013-07-05 15:35:00,83.3,67.0,30.02,West,281,0.0,2.0,58,0.00,,,0.00,Wunderground v.1.15,2013-07-05 19:35:00,
2013-07-05 15:40:00,83.6,67.3,30.02,NW,309,1.0,2.0,58,0.00,,,0.00,Wunderground v.1.15,2013-07-05 19:40:00,
2013-07-05 15:50:00,83.7,66.3,30.01,ESE,115,2.0,2.0,56,0.00,,,0.00,Wunderground v.1.15,2013-07-05 19:50:00,
2013-07-05 16:00:00,84.0,67.1,30.01,South,171,1.0,1.0,57,0.00,,,0.00,Wunderground v.1.15,2013-07-05 20:00:00,
2013-07-05 16:10:00,84.4,65.9,30.01,ENE,59,1.0,2.0,54,0.00,,,0.00,Wunderground v.1.15,2013-07-05 20:10:00,
2013-07-05 16:15:00,84.3,64.8,30.01,WSW,258,2.0,3.0,52,0.00,,,0.00,Wunderground v.1.15,2013-07-05 20:15:00,
2013-07-05 16:20:00,84.3,64.8,30.01,WSW,258,2.0,2.0,52,0.00,,,0.00,Wunderground v.1.15,2013-07-05 20:20:00,
2013-07-05 16:30:00,85.0,66.0,30.01,SW,236,1.0,1.0,53,0.00,,,0.00,Wunderground v.1.15,2013-07-05 20:30:00,
2013-07-05 16:40:00,85.0,64.8,30.00,WNW,289,2.0,5.0,51,0.00,,,0.00,Wunderground v.1.15,2013-07-05 20:40:00,
2013-07-05 16:45:00,84.5,64.9,30.00,South,171,3.0,5.0,52,0.00,,,0.00,Wunderground v.1.15,2013-07-05 20:45:00,
2013-07-05 16:50:00,84.5,67.1,30.00,South,173,1.0,1.0,56,0.00,,,0.00,Wunderground v.1.15,2013-07-05 20:50:00,
2013-07-05 17:00:00,85.3,65.7,30.00,East,92,1.0,1.0,52,0.00,,,0.00,Wunderground v.1.15,2013-07-05 21:00:00,
2013-07-05 17:10:00,84.9,66.4,29.99,NE,34,2.0,2.0,54,0.00,,,0.00,Wunderground v.1.15,2013-07-05 21:10:00,
2013-07-05 17:15:00,85.0,65.4,29.99,NNE,32,2.0,3.0,52,0.00,,,0.00,Wunderground v.1.15,2013-07-05 21:15:00,
2013-07-05 17:26:00,85.4,65.2,29.99,West,261,1.0,2.0,51,0.00,,,0.00,Wunderground v.1.15,2013-07-05 21:26:00,
2013-07-05 17:35:00,85.9,66.8,29.99,SSW,196,2.0,2.0,53,0.00,,,0.00,Wunderground v.1.15,2013-07-05 21:35:00,
2013-07-05 17:40:00,86.1,66.4,29.99,South,188,1.0,3.0,52,0.00,,,0.00,Wunderground v.1.15,2013-07-05 21:40:00,
2013-07-05 17:50:00,85.1,65.5,29.99,NNE,30,1.0,3.0,52,0.00,,,0.00,Wunderground v.1.15,2013-07-05 21:50:00,
2013-07-05 17:55:00,85.1,66.0,29.99,SW,219,1.0,3.0,53,0.00,,,0.00,Wunderground v.1.15,2013-07-05 21:55:00,
2013-07-05 18:00:00,85.0,65.4,29.99,ESE,121,1.0,7.0,52,0.00,,,0.00,Wunderground v.1.15,2013-07-05 22:00:00,
2013-07-05 18:10:00,84.6,65.0,29.99,SW,225,2.0,2.0,52,0.00,,,0.00,Wunderground v.1.15,2013-07-05 22:10:00,
2013-07-05 18:15:00,84.9,65.9,29.99,WNW,290,1.0,2.0,53,0.00,,,0.00,Wunderground v.1.15,2013-07-05 22:15:00,
2013-07-05 18:20:00,85.0,66.0,29.99,West,273,1.0,1.0,53,0.00,,,0.00,Wunderground v.1.15,2013-07-05 22:20:00,
2013-07-05 18:25:00,85.0,65.4,29.99,NW,309,1.0,1.0,52,0.00,,,0.00,Wunderground v.1.15,2013-07-05 22:25:00,
2013-07-05 18:30:00,85.4,65.8,29.99,NW,308,0.0,0.0,52,0.00,,,0.00,Wunderground v.1.15,2013-07-05 22:30:00,
2013-07-05 18:41:00,85.6,65.4,29.99,NW,308,1.0,3.0,51,0.00,,,0.00,Wunderground v.1.15,2013-07-05 22:41:00,
2013-07-05 18:46:00,85.2,65.0,29.99,NW,305,2.0,3.0,51,0.00,,,0.00,Wunderground v.1.15,2013-07-05 22:46:00,
2013-07-05 18:56:00,85.2,65.6,29.99,NW,319,1.0,2.0,52,0.00,,,0.00,Wunderground v.1.15,2013-07-05 22:56:00,
2013-07-05 19:01:00,85.0,65.4,29.99,WSW,244,1.0,1.0,52,0.00,,,0.00,Wunderground v.1.15,2013-07-05 23:01:00,
2013-07-05 19:10:00,84.8,65.8,29.99,West,269,1.0,1.0,53,0.00,,,0.00,Wunderground v.1.15,2013-07-05 23:10:00,
2013-07-05 19:20:00,84.8,65.8,29.99,West,269,0.0,2.0,53,0.00,,,0.00,Wunderground v.1.15,2013-07-05 23:20:00,
2013-07-05 19:25:00,84.8,65.2,29.99,West,269,0.0,2.0,52,0.00,,,0.00,Wunderground v.1.15,2013-07-05 23:25:00,
2013-07-05 19:30:00,84.8,65.8,29.98,West,269,0.0,0.0,53,0.00,,,0.00,Wunderground v.1.15,2013-07-05 23:30:00,
2013-07-05 19:35:00,84.8,65.8,29.98,West,269,0.0,0.0,53,0.00,,,0.00,Wunderground v.1.15,2013-07-05 23:35:00,
2013-07-05 19:41:00,84.6,65.6,29.98,West,269,0.0,0.0,53,0.00,,,0.00,Wunderground v.1.15,2013-07-05 23:41:00,
2013-07-05 19:50:00,84.5,66.0,29.97,West,269,0.0,0.0,54,0.00,,,0.00,Wunderground v.1.15,2013-07-05 23:50:00,
2013-07-05 19:55:00,84.5,66.0,29.98,West,269,0.0,0.0,54,0.00,,,0.00,Wunderground v.1.15,2013-07-05 23:55:00,
2013-07-05 20:00:00,84.4,66.5,29.99,West,269,0.0,0.0,55,0.00,,,0.00,Wunderground v.1.15,2013-07-06 00:00:00,
2013-07-05 20:10:00,83.6,66.2,29.99,West,269,0.0,0.0,56,0.00,,,0.00,Wunderground v.1.15,2013-07-06 00:10:00,
2013-07-05 20:20:00,83.2,66.9,29.99,West,269,0.0,0.0,58,0.00,,,0.00,Wunderground v.1.15,2013-07-06 00:20:00,
2013-07-05 20:25:00,83.0,66.2,29.99,West,269,0.0,1.0,57,0.00,,,0.00,Wunderground v.1.15,2013-07-06 00:25:00,
2013-07-05 20:31:00,82.6,65.8,29.99,West,269,0.0,0.0,57,0.00,,,0.00,Wunderground v.1.15,2013-07-06 00:31:00,
2013-07-05 20:40:00,81.9,66.2,29.99,West,269,0.0,0.0,59,0.00,,,0.00,Wunderground v.1.15,2013-07-06 00:40:00,
2013-07-05 20:50:00,81.2,65.5,29.99,NW,308,0.0,0.0,59,0.00,,,0.00,Wunderground v.1.15,2013-07-06 00:50:00,
2013-07-05 20:56:00,80.8,65.1,29.99,NW,308,0.0,1.0,59,0.00,,,0.00,Wunderground v.1.15,2013-07-06 00:56:00,
2013-07-05 21:05:00,80.0,64.9,29.99,NW,308,0.0,1.0,60,0.00,,,0.00,Wunderground v.1.15,2013-07-06 01:05:00,
2013-07-05 21:11:00,79.5,64.9,29.99,NW,308,0.0,0.0,61,0.00,,,0.00,Wunderground v.1.15,2013-07-06 01:11:00,
2013-07-05 21:21:00,78.6,64.5,29.99,NW,308,0.0,0.0,62,0.00,,,0.00,Wunderground v.1.15,2013-07-06 01:21:00,
2013-07-05 21:30:00,77.9,64.3,29.99,NW,308,0.0,0.0,63,0.00,,,0.00,Wunderground v.1.15,2013-07-06 01:30:00,
2013-07-05 21:40:00,77.4,63.8,30.00,NW,308,0.0,0.0,63,0.00,,,0.00,Wunderground v.1.15,2013-07-06 01:40:00,
2013-07-05 21:45:00,77.2,64.1,30.00,NW,308,0.0,0.0,64,0.00,,,0.00,Wunderground v.1.15,2013-07-06 01:45:00,
2013-07-05 21:56:00,76.6,63.5,30.00,NW,308,0.0,0.0,64,0.00,,,0.00,Wunderground v.1.15,2013-07-06 01:56:00,
2013-07-05 22:05:00,76.0,62.9,30.00,NW,308,0.0,0.0,64,0.00,,,0.00,Wunderground v.1.15,2013-07-06 02:05:00,
2013-07-05 22:11:00,75.8,62.8,30.00,NW,308,0.0,0.0,64,0.00,,,0.00,Wunderground v.1.15,2013-07-06 02:11:00,
2013-07-05 22:25:00,75.5,62.5,30.01,NW,308,0.0,0.0,64,0.00,,,0.00,Wunderground v.1.15,2013-07-06 02:25:00,
2013-07-05 22:36:00,75.3,62.7,30.01,NW,308,0.0,0.0,65,0.00,,,0.00,Wunderground v.1.15,2013-07-06 02:36:00,
2013-07-05 22:45:00,75.1,62.5,30.01,NW,308,0.0,0.0,65,0.00,,,0.00,Wunderground v.1.15,2013-07-06 02:45:00,
2013-07-05 22:51:00,75.1,62.5,30.01,NW,308,0.0,0.0,65,0.00,,,0.00,Wunderground v.1.15,2013-07-06 02:51:00,
2013-07-05 23:00:00,74.7,62.6,30.01,NW,308,0.0,0.0,66,0.00,,,0.00,Wunderground v.1.15,2013-07-06 03:00:00,
2013-07-05 23:10:00,74.2,63.0,30.01,NW,308,0.0,0.0,68,0.00,,,0.00,Wunderground v.1.15,2013-07-06 03:10:00,
2013-07-05 23:15:00,73.8,63.0,30.01,NW,308,0.0,0.0,69,0.00,,,0.00,Wunderground v.1.15,2013-07-06 03:15:00,
2013-07-05 23:25:00,73.1,62.7,30.01,NW,308,0.0,0.0,70,0.00,,,0.00,Wunderground v.1.15,2013-07-06 03:25:00,
2013-07-05 23:36:00,72.8,62.8,30.01,NW,308,0.0,1.0,71,0.00,,,0.00,Wunderground v.1.15,2013-07-06 03:36:00,
2013-07-05 23:45:00,71.9,63.2,30.01,NW,308,2.0,2.0,74,0.00,,,0.00,Wunderground v.1.15,2013-07-06 03:45:00,
2013-07-05 23:50:00,71.5,62.8,30.01,NW,308,1.0,2.0,74,0.00,,,0.00,Wunderground v.1.15,2013-07-06 03:50:00,
2013-07-05 23:56:00,71.5,62.8,30.01,NW,308,1.0,1.0,74,0.00,,,0.00,Wunderground v.1.15,2013-07-06 03:56:00,